Indiana, PA

2:30 PM EST on November 11, 2019 (GMT -0500)
Indiana County-Stewart

Weather History for KIDI - October, 2019

Change the Weather History Date:

Wednesday, October 23, 2019

  Actual Average Record
Temperature  
Mean Temperature 47 °F -  
Max Temperature 55 °F 61 °F 81 °F (1975)
Min Temperature 39 °F 38 °F 20 °F (1952)
Degree Days  
Heating Degree Days 18    
Moisture  
Dew Point 38 °F    
Average Humidity 75    
Maximum Humidity 100    
Minimum Humidity 38    
Precipitation  
Precipitation 0.00 in - - ()
Sea Level Pressure  
Sea Level Pressure 30.07 in    
Wind  
Wind Speed 5 mph ()    
Max Wind Speed 22 mph    
Max Gust Speed 29 mph    
Visibility 8.9 miles    
Events Fog    
Averages and records for this station are not official NWS values.
T = Trace of Precipitation, MM = Missing Value Source: Averaged Metar Reports

Daily Weather History Graph

Daily Weather History Graph

Search for Another Location

Airport or City:

Astronomy

Oct. 23, 2019 Rise Set
Actual Time 7:36 AM EDT 6:24 PM EDT
Civil Twilight 7:08 AM EDT 6:52 PM EDT
Nautical Twilight 6:36 AM EDT 7:24 PM EDT
Astronomical Twilight 6:04 AM EDT 7:56 PM EDT
Moon 1:50 AM EDT (10/23) 4:16 PM EDT (10/23)
Length of Visible Light 11h 44m
Length of Day
10h 48m
Waning Crescent, 27% of the Moon is Illuminated
Oct 23
Waning Crescent
Oct 27
New
Nov 4
First Quarter
Nov 12
Full
Nov 19
Last Quarter

Hourly Weather History & Observations

Time (EDT) Temp. Windchill Dew Point Humidity Pressure Visibility Wind Dir Wind Speed Gust Speed Precip Events Conditions
12:35 AM 50.0 °F - 50.0 °F 100% 29.92 in 8.0 mi Calm Calm - N/A   Overcast
12:55 AM 50.0 °F - 50.0 °F 100% 29.91 in 10.0 mi Calm Calm - N/A   Overcast
1:15 AM 48.2 °F - 48.2 °F 100% 29.91 in 10.0 mi Calm Calm - N/A   Overcast
1:35 AM 48.2 °F - 48.2 °F 100% 29.91 in 9.0 mi Calm Calm - N/A   Mostly Cloudy
1:55 AM 46.4 °F - 46.4 °F 100% 29.91 in 3.0 mi Calm Calm - N/A   Mostly Cloudy
2:15 AM 44.6 °F - 44.6 °F 100% 29.91 in 0.2 mi Calm Calm - N/A Fog Fog
2:35 AM 44.6 °F - 44.6 °F 100% 29.93 in 1.2 mi Calm Calm - N/A   Mostly Cloudy
2:55 AM 44.6 °F - 44.6 °F 100% 29.93 in 9.0 mi Calm Calm - N/A   Partly Cloudy
3:35 AM 42.8 °F - 42.8 °F 100% 29.94 in 6.0 mi Calm Calm - N/A   Clear
3:55 AM 42.8 °F - 42.8 °F 100% 29.94 in 5.0 mi Calm Calm - N/A   Partly Cloudy
4:15 AM 42.8 °F - 42.8 °F 100% 29.95 in 0.8 mi Calm Calm - N/A   Scattered Clouds
4:35 AM 42.8 °F - 42.8 °F 100% 29.96 in 8.0 mi Calm Calm - N/A   Partly Cloudy
4:55 AM 42.8 °F - 42.8 °F 100% 29.96 in 9.0 mi Calm Calm - N/A   Clear
5:15 AM 42.8 °F - 42.8 °F 100% 29.97 in 10.0 mi Calm Calm - N/A   Mostly Cloudy
5:35 AM 41.0 °F - 41.0 °F 100% 29.98 in 10.0 mi Calm Calm - N/A   Partly Cloudy
5:55 AM 41.0 °F - 41.0 °F 100% 29.99 in 8.0 mi Calm Calm - N/A   Clear
6:15 AM 41.0 °F 38.0 °F 41.0 °F 100% 29.99 in 8.0 mi WSW 4.6 mph - N/A   Clear
6:35 AM 41.0 °F 38.0 °F 41.0 °F 100% 30.00 in 6.0 mi WSW 4.6 mph - N/A   Clear
6:55 AM 41.0 °F 38.0 °F 41.0 °F 100% 30.00 in 9.0 mi WSW 4.6 mph - N/A   Clear
7:15 AM 39.2 °F 34.2 °F 39.2 °F 100% 30.01 in 7.0 mi WSW 6.9 mph - N/A   Clear
7:35 AM 39.2 °F 35.9 °F 39.2 °F 100% 30.01 in 7.0 mi WSW 4.6 mph - N/A   Clear
7:55 AM 39.2 °F 35.9 °F 39.2 °F 100% 30.02 in 6.0 mi WSW 4.6 mph - N/A   Clear
8:15 AM 41.0 °F 37.1 °F 41.0 °F 100% 30.03 in 9.0 mi WSW 5.8 mph - N/A   Clear
8:35 AM 42.8 °F 39.3 °F 42.8 °F 100% 30.03 in 9.0 mi WSW 5.8 mph - N/A   Clear
8:55 AM 42.8 °F 38.0 °F 42.8 °F 100% 30.05 in 9.0 mi WSW 8.1 mph - N/A   Clear
9:15 AM 44.6 °F 40.7 °F 44.6 °F 100% 30.05 in 10.0 mi WSW 6.9 mph - N/A   Clear
9:35 AM 46.4 °F 42.4 °F 46.4 °F 100% 30.06 in 10.0 mi West 8.1 mph - N/A   Clear
9:55 AM 48.2 °F - 46.4 °F 93% 30.05 in 10.0 mi WSW 12.7 mph - N/A   Clear
10:15 AM 48.2 °F - 42.8 °F 82% 30.07 in 10.0 mi West 15.0 mph - N/A   Clear
10:35 AM 50.0 °F - 42.8 °F 76% 30.07 in 10.0 mi West 13.8 mph 24.2 mph N/A   Clear
10:55 AM 51.8 °F - 42.8 °F 71% 30.07 in 10.0 mi West 12.7 mph 18.4 mph N/A   Clear
11:15 AM 51.8 °F - 41.0 °F 67% 30.07 in 10.0 mi West 16.1 mph 24.2 mph N/A   Clear
11:35 AM 51.8 °F - 39.2 °F 62% 30.08 in 10.0 mi West 15.0 mph 25.3 mph N/A   Clear
11:55 AM 51.8 °F - 37.4 °F 58% 30.08 in 10.0 mi West 12.7 mph 26.5 mph N/A   Mostly Cloudy
12:35 PM 53.6 °F - 33.8 °F 47% 30.09 in 10.0 mi West 19.6 mph - N/A   Scattered Clouds
12:55 PM 53.6 °F - 35.6 °F 51% 30.09 in 10.0 mi West 19.6 mph 25.3 mph N/A   Partly Cloudy
1:15 PM 53.6 °F - 32.0 °F 44% 30.09 in 10.0 mi WNW 17.3 mph - N/A   Clear
1:35 PM 53.6 °F - 32.0 °F 44% 30.09 in 10.0 mi West 21.9 mph 28.8 mph N/A   Clear
1:55 PM 53.6 °F - 32.0 °F 44% 30.09 in 10.0 mi West 16.1 mph 25.3 mph N/A   Clear
2:15 PM 55.4 °F - 32.0 °F 41% 30.09 in 10.0 mi WNW 16.1 mph 28.8 mph N/A   Clear
2:35 PM 55.4 °F - 32.0 °F 41% 30.09 in 10.0 mi West 18.4 mph 27.6 mph N/A   Clear
2:55 PM 55.4 °F - 32.0 °F 41% 30.10 in 10.0 mi West 13.8 mph 23.0 mph N/A   Clear
3:15 PM 55.4 °F - 32.0 °F 41% 30.11 in 10.0 mi WNW 17.3 mph 27.6 mph N/A   Clear
3:35 PM 55.4 °F - 30.2 °F 38% 30.11 in 10.0 mi WNW 11.5 mph 21.9 mph N/A   Clear
3:55 PM 55.4 °F - 30.2 °F 38% 30.12 in 10.0 mi West 15.0 mph 21.9 mph N/A   Clear
4:15 PM 55.4 °F - 30.2 °F 38% 30.12 in 10.0 mi West 17.3 mph 23.0 mph N/A   Clear
4:35 PM 55.4 °F - 30.2 °F 38% 30.13 in 10.0 mi WNW 15.0 mph - N/A   Clear
4:55 PM 55.4 °F - 30.2 °F 38% 30.14 in 10.0 mi West 11.5 mph 18.4 mph N/A   Clear
5:15 PM 55.4 °F - 32.0 °F 41% 30.14 in 10.0 mi West 12.7 mph 18.4 mph N/A   Clear
5:35 PM 55.4 °F - 30.2 °F 38% 30.15 in 10.0 mi West 11.5 mph 18.4 mph N/A   Clear
5:55 PM 53.6 °F - 30.2 °F 41% 30.16 in 10.0 mi West 11.5 mph - N/A   Clear
6:15 PM 53.6 °F - 30.2 °F 41% 30.16 in 10.0 mi West 10.4 mph - N/A   Clear
6:35 PM 50.0 °F - 32.0 °F 50% 30.17 in 10.0 mi West 5.8 mph - N/A   Clear
6:55 PM 48.2 °F - 32.0 °F 54% 30.17 in 10.0 mi Calm Calm - N/A   Clear
7:15 PM 48.2 °F - 32.0 °F 54% 30.18 in 10.0 mi Calm Calm - N/A   Clear
7:35 PM 46.4 °F - 33.8 °F 62% 30.19 in 10.0 mi Calm Calm - N/A   Clear
7:55 PM 44.6 °F - 35.6 °F 71% 30.19 in 10.0 mi Calm Calm - N/A   Clear
8:15 PM 42.8 °F - 35.6 °F 76% 30.19 in 10.0 mi Calm Calm - N/A   Clear
8:35 PM 42.8 °F - 35.6 °F 76% 30.19 in 10.0 mi Calm Calm - N/A   Clear
8:55 PM 42.8 °F - 35.6 °F 76% 30.20 in 10.0 mi Calm Calm - N/A   Clear
9:15 PM 42.8 °F - 35.6 °F 76% 30.20 in 10.0 mi Calm Calm - N/A   Clear
9:35 PM 41.0 °F - 35.6 °F 81% 30.21 in 10.0 mi Calm Calm - N/A   Clear
9:55 PM 41.0 °F - 35.6 °F 81% 30.21 in 10.0 mi Calm Calm - N/A   Clear
10:15 PM 41.0 °F - 35.6 °F 81% 30.21 in 10.0 mi Calm Calm - N/A   Clear
10:35 PM 41.0 °F - 35.6 °F 81% 30.22 in 10.0 mi Calm Calm - N/A   Clear
11:15 PM 41.0 °F - 33.8 °F 76% 30.23 in 10.0 mi Calm Calm - N/A   Clear
11:35 PM 41.0 °F - 35.6 °F 81% 30.23 in 10.0 mi Calm Calm - N/A   Clear
11:55 PM 39.2 °F - 35.6 °F 87% 30.23 in 10.0 mi Calm Calm - N/A   Clear